This demonstration page uses our WeatherBlox Daily Observations layout. Learn more.

Left ArrowRight Arrow

39.51506, -84.39828

Hourly Observations for May 2, 2018

Temp ( °F °C ) Dew Point ( °F °C ) Humidity (%) Winds ( mph kmh ) Pressure ( in mb ) Visibility ( mi km ) Precip ( " mm )
12:15 am 00:15 Clear 56 13.5 47 8.6 72 72 N N/A 30.12 1020 10 16 N/A
12:35 am 00:35 Clear 55 12.8 47 8.2 74 74 N N/A 30.12 1020 10 16 N/A
12:55 am 00:55 Clear 54 12.3 47 8.3 77 77 N N/A 30.12 1020 10 16 N/A
1:15 am 01:15 Clear 54 12.1 48 8.8 80 80 N N/A 30.12 1020 10 16 N/A
1:35 am 01:35 Clear 53 11.6 47 8.1 79 79 N N/A 30.12 1020 10 16 N/A
1:55 am 01:55 Clear 53 11.4 49 9.3 87 87 N N/A 30.12 1020 10 16 N/A
2:15 am 02:15 Clear 52 11.2 48 9.1 87 87 N N/A 30.12 1020 10 16 N/A
2:35 am 02:35 Clear 52 11.2 48 9.1 87 87 N N/A 30.12 1020 10 16 N/A
2:55 am 02:55 Clear 51 10.6 47 8.3 86 86 N N/A 30.12 1020 10 16 N/A
3:15 am 03:15 Clear 51 10.3 47 8.3 88 88 N N/A 30.12 1020 10 16 N/A
3:35 am 03:35 Clear 50 9.8 47 8.2 90 90 N N/A 30.12 1020 10 16 N/A
3:55 am 03:55 Clear 50 9.9 47 8.3 90 90 N N/A 30.12 1020 10 16 N/A
4:15 am 04:15 Clear 50 10 46 7.9 87 87 N N/A 30.12 1020 10 16 N/A
4:35 am 04:35 Clear 50 9.9 46 7.9 88 88 N N/A 30.09 1019 10 16 N/A
4:55 am 04:55 Clear 50 10.1 48 8.8 92 92 N N/A 30.12 1020 10 16 N/A
5:15 am 05:15 Clear 49 9.4 47 8.3 93 93 N N/A 30.12 1020 10 16 N/A
5:35 am 05:35 Clear 51 10.3 47 8.5 89 89 N N/A 30.12 1020 10 16 N/A
5:55 am 05:55 Clear 51 10.3 47 8.4 88 88 N N/A 30.12 1020 10 16 N/A
6:15 am 06:15 Clear 50 9.9 47 8.3 90 90 N N/A 30.12 1020 10 16 N/A
6:35 am 06:35 Clear 50 10 47 8.1 88 88 N N/A 30.12 1020 10 16 N/A
6:55 am 06:55 Sunny 51 10.5 47 8.5 88 88 N N/A 30.15 1021 10 16 N/A
7:15 am 07:15 Sunny 51 10.3 48 8.8 91 91 N N/A 30.15 1021 10 16 N/A
7:35 am 07:35 Partly Cloudy 52 11 49 9.7 92 92 N N/A 30.15 1021 10 16 N/A
7:55 am 07:55 Partly Cloudy 55 12.5 51 10.8 89 89 WSW 3 6 30.15 1021 10 16 N/A
8:15 am 08:15 Partly Cloudy 60 15.3 53 11.9 80 80 SSW 6 9 30.15 1021 10 16 N/A
8:35 am 08:35 Sunny 65 18.2 53 11.9 67 67 SSW 7 11 30.12 1020 10 16 N/A
8:55 am 08:55 Mostly Cloudy 64 17.9 52 11.2 65 65 SSW 9 15 30.12 1020 10 16 N/A
9:15 am 09:15 Partly Cloudy 67 19.5 54 12 62 62 SSW 10 17 30.12 1020 10 16 N/A
9:35 am 09:35 Sunny 70 20.9 55 12.9 60 60 SW 12 19 30.12 1020 10 16 N/A
9:55 am 09:55 Partly Cloudy 71 21.9 56 13.3 58 58 SSW 14 22 30.12 1020 10 16 N/A
10:15 am 10:15 Sunny 73 22.6 57 13.9 58 58 SW 16 26 30.12 1020 10 16 N/A
10:35 am 10:35 Sunny 74 23.2 58 14.4 58 58 SSW 18 30 30.12 1020 10 16 N/A
10:55 am 10:55 Partly Cloudy 75 24.1 59 14.9 57 57 SSW 21 33 30.12 1020 10 16 N/A
11:15 am 11:15 Mostly Cloudy 75 24 58 14.6 56 56 SSW 21 33 30.12 1020 10 16 N/A
11:35 am 11:35 Partly Cloudy 75 24 59 14.8 57 57 SSW 17 28 30.12 1020 10 16 N/A
11:55 am 11:55 Sunny 78 25.3 60 15.5 55 55 SSW 18 30 30.12 1020 10 16 N/A
12:15 pm 12:15 Partly Cloudy 78 25.6 60 15.3 53 53 SSW 20 31 30.12 1020 10 16 N/A
12:35 pm 12:35 Mostly Cloudy 80 26.9 61 16.1 52 52 SSW 16 26 30.09 1019 10 16 N/A
12:55 pm 12:55 Mostly Cloudy 79 26 60 15.5 52 52 SW 22 35 30.09 1019 10 16 N/A
1:15 pm 13:15 Partly Cloudy 81 27 60 15.8 50 50 SSW 17 28 30.09 1019 10 16 N/A
1:35 pm 13:35 Sunny 82 27.5 61 15.9 49 49 SW 18 30 30.06 1018 10 16 N/A
1:55 pm 13:55 Sunny 82 27.7 61 16.2 50 50 SSW 20 31 30.06 1018 10 16 N/A
2:15 pm 14:15 Partly Cloudy 83 28.1 62 16.4 49 49 SSW 21 33 30.06 1018 10 16 N/A
2:35 pm 14:35 Partly Cloudy 83 28.1 61 15.9 47 47 SSW 23 37 30.06 1018 10 16 N/A
2:55 pm 14:55 Sunny 83 28.2 60 15.8 47 47 SSW 17 28 30.06 1018 10 16 N/A
3:15 pm 15:15 Mostly Cloudy 83 28.4 60 15.8 46 46 SSW 18 30 30.06 1018 10 16 N/A
3:35 pm 15:35 Mostly Cloudy 82 27.6 60 15.5 48 48 SSW 20 31 30.03 1017 10 16 N/A
3:55 pm 15:55 Mostly Cloudy 82 27.7 60 15.7 48 48 SSW 18 30 30.03 1017 10 16 N/A
4:15 pm 16:15 Partly Cloudy 83 28.3 61 15.9 47 47 SSW 18 30 30.03 1017 10 16 N/A
4:35 pm 16:35 Mostly Cloudy 84 28.8 62 16.4 47 47 SSW 17 28 30.00 1016 10 16 N/A
4:55 pm 16:55 Mostly Cloudy 82 27.9 60 15.8 48 48 SW 21 33 30.03 1017 10 16 N/A
5:15 pm 17:15 Sunny 82 27.8 60 15.6 47 47 SW 14 22 30.03 1017 10 16 N/A
5:35 pm 17:35 Partly Cloudy 82 27.9 60 15.7 47 47 SW 17 28 30.03 1017 10 16 N/A
5:55 pm 17:55 Partly Cloudy 83 28.1 61 15.9 47 47 SW 18 30 30.03 1017 10 16 N/A
6:15 pm 18:15 Sunny 82 28 60 15.7 47 47 SW 15 24 30.03 1017 10 16 N/A
6:35 pm 18:35 Partly Cloudy 82 28 61 16 48 48 SSW 17 28 30.03 1017 10 16 N/A
6:55 pm 18:55 Sunny 81 27.2 59 15.2 48 48 SW 18 30 30.03 1017 10 16 N/A
7:15 pm 19:15 Mostly Cloudy 81 27.2 60 15.5 49 49 SW 15 24 30.00 1016 10 16 N/A
7:35 pm 19:35 Sunny 80 26.8 60 15.4 50 50 SSW 14 22 30.00 1016 10 16 N/A
7:55 pm 19:55 Sunny 80 26.6 60 15.4 50 50 SSW 13 20 30.00 1016 10 16 N/A
8:15 pm 20:15 Sunny 79 26.1 59 15.1 51 51 SSW 10 17 30.00 1016 10 16 N/A
8:35 pm 20:35 Clear 78 25.4 60 15.3 54 54 S 12 19 30.00 1016 10 16 N/A
8:55 pm 20:55 Clear 78 25.3 60 15.3 54 54 SSW 10 17 30.00 1016 10 16 N/A
9:15 pm 21:15 Clear 77 25 60 15.3 55 55 S 9 15 30.00 1016 10 16 N/A
9:35 pm 21:35 Clear 77 24.9 60 15.3 55 55 SSW 12 19 30.00 1016 10 16 N/A
9:55 pm 21:55 Clear 76 24.3 60 15.3 57 57 S 12 19 30.00 1016 10 16 N/A
10:15 pm 22:15 Clear 76 24.3 60 15.3 57 57 SSW 9 15 30.00 1016 10 16 N/A
10:35 pm 22:35 Clear 73 23 60 15.5 63 63 SSW 9 15 30.00 1016 10 16 N/A
10:55 pm 22:55 Clear 74 23.3 60 15.6 62 62 SSW 9 15 30.03 1017 10 16 N/A
11:15 pm 23:15 Clear 72 22.2 60 15.6 66 66 SSW 8 13 30.03 1017 10 16 N/A
11:35 pm 23:35 Clear 71 21.7 60 15.6 68 68 SSW 8 13 30.03 1017 10 16 N/A
11:55 pm 23:55 Clear 71 21.7 60 15.8 69 69 SSW 8 13 30.03 1017 10 16 N/A

Powered by AerisWeather